ARIANE 2 DEB, 33579

Orbit data source: Space-Track

ARIANE 2 DEB, 33579 is space debris in HEO originally from a launch on Fri, 27 Jan 1989 UTC launched from the French Guiana (FRGUI). Debris objects in space refer to the collection of defunct objects orbiting the Earth. Examples of debris include non-operational satellites, rocket bodies, and fragments generated from explosions, collisions, or faulty payload assembly.

Loading next visibility...
Identifier
33579, 1989-006BX
Orbit
HEO
Country
Flag of FRFR
Related business
Manufacturer
EADS/LV
Mission
Spacecraft
Bus & Motor
Unknown
Mass
Unknown
Launch date (UTC)
1989-01-27 (37 years ago)
Launch vehicle
Unknown
Launch site
French Guiana (FRGUI)
Object type
Payload
Rocket body
Debris
Shape & HBR
Unknown shape, 0.2 m
Radar Cross Section
Medium (>0.1 m² and <1 m²)

Expand to show TLE details & history
Last TLE update: 2 weeks ago

TLE from 2 weeks ago
0 ARIANE 2 DEB
1 33579U 89006BX  26094.08386757  .00000306  00000-0  16028-1 0  9992
2 33579  10.6786 112.7594 7087254 311.7965   9.8353  2.24857086193442
Epoch: 2026-04-04T02:00Z
TLE epoch observation values (Epoch: 2026-04-04T02:00:46.158Z)
Latitude
3.44977°
Longitude
-90.99775°
Altitude
3,254.449 km
Speed
8.158 km/s
True Right ascension
08h 46m 24s
True Declination
3° 26' 04"
Sunlit
Object was in daylight at epoch
Visualization orbit readout
Latitude
Unknown
Longitude
Unknown
Altitude
Unknown
Speed
Unknown
Apparent Right ascension
Unknown
Apparent Declination
Unknown
Sunlit
N/A
Visualization observer readout
Local Sidereal Time
05:49:51
Azimuth
Unknown
Elevation
Unknown
Doppler factor
Unknown
Orbital elements
Apogee altitude
35,683.739 km
Perigee altitude
791.86 km
Semi-major axis
24,615.936 km
Eccentricity
0.70873
Inclination
10.6786°
RAAN
112.7594°
Arg. of periapsis
311.7965°
True anomaly
66.61886°
Mean anomaly
9.8353°
Eccentric anomaly
30.35831°
Mean motion
0.56198 °/min
Orbital period
640.6 mins
BSTAR
0.016028
Loading maneuver chart data...
Computing Atmospheric mass density...
Loading historical data...
Loading historical data...
Loading historical data...
Loading historical data...
Loading historical data...
Loading historical data...
Loading historical data...

Documentation

Showing up to 5 results
|